Regional Weather Roundup
Issued by NWS

Home | Current Version | Previous Version | Graphics & Text | Print | Product List | Glossary On
Versions: 1 2 3 4 5 6 7 8 9 10 11 12 13 14 15 16 17 18 19 20 21 22 23 24 25 26 27 28 29 30 31 32 33 34 35 36 37 38 39 40 41 42 43 44 45 46 47 48 49 50
000
ASUS43 KOAX 280610
RWRNE

WEATHER ROUNDUP FOR NEBRASKA
NATIONAL WEATHER SERVICE OMAHA NE
1200 AM CST SAT FEB 28 2015

NOTES: SATELLITE DATA IS BEING USED TO AUGMENT CLOUD COVER ABOVE
       12000 FEET.
       "FAIR" INDICATES FEW OR NO CLOUDS BELOW 12,000 FEET WITH NO
       SIGNIFICANT WEATHER AND/OR OBSTRUCTIONS TO VISIBILITY.

  * THESE STATIONS DO NOT REPORT WEATHER SUCH AS RAIN...SNOW OR FOG.

NEZ001>004-019>022-054>056-280700-
NEBRASKA PANHANDLE

CITY           SKY/WX    TMP DP  RH WIND       PRES   REMARKS
SCOTTSBLUFF    CLEAR     13   6  74 SE12      30.01S WCI  -1
6HR MIN TEMP:  13; 6HR MAX TEMP:  21; 6HR PCP: TRACE;

ALLIANCE       CLEAR     11   5  77 S16       30.03S WCI  -6
6HR MIN TEMP:  11; 6HR MAX TEMP:  18; 6HR PCP: TRACE;

CHADRON        CLEAR     17   7  64 S15       30.04S WCI   2
6HR MIN TEMP:  17; 6HR MAX TEMP:  23;

KIMBALL        FLURRIES   5   2  86 S12       29.92F WCI -11
SIDNEY         CLOUDY     8   3  80 S13       30.01F HAZE    WCI  -8
6HR MIN TEMP:   8; 6HR MAX TEMP:  16; 6HR PCP: TRACE;

$$

NEZ057>060-069>072-079>082-280700-
SOUTHWEST NEBRASKA

CITY           SKY/WX    TMP DP  RH WIND       PRES   REMARKS
NORTH PLATTE   CLOUDY    16   6  65 S16       30.21F WCI   1
6HR MIN TEMP:  16; 6HR MAX TEMP:  20;

IMPERIAL         N/A     14   6  70 S14       30.16F WCI  -1
6HR MIN TEMP:  11; 6HR MAX TEMP:  18;

LEXINGTON      CLOUDY    16   7  67 S14       30.29F WCI   2
MCCOOK         CLOUDY    18   6  59 S14       30.26F WCI   4
6HR MIN TEMP:  18; 6HR MAX TEMP:  22;

OGALLALA       CLEAR     11   7  83 S9        30.15S WCI  -2
$$

NEZ005>010-023>029-035>040-094-280700-
NORTH CENTRAL NEBRASKA

CITY           SKY/WX    TMP DP  RH WIND       PRES   REMARKS
VALENTINE      CLOUDY    15   5  64 S12       30.18F WCI   2
6HR MIN TEMP:  14; 6HR MAX TEMP:  25;

AINSWORTH      CLEAR     12   1  63 S13       30.21F WCI  -3
BROKEN BOW     CLEAR     10   1  67 S9        30.27F WCI  -3
6HR MIN TEMP:  10; 6HR MAX TEMP:  22;

O`NEILL        CLEAR     12   1  61 S12       30.31F WCI  -2
ORD            CLEAR     10  -1  61 S10       30.32F WCI  -4
6HR MIN TEMP:  10; 6HR MAX TEMP:  21;

THEDFORD       CLOUDY    18   7  60 S17G23    30.19S WCI   3
$$

NEZ041-046>049-061>064-073>077-083>087-280700-
SOUTH CENTRAL NEBRASKA

CITY           SKY/WX    TMP DP  RH WIND       PRES   REMARKS
GRAND ISLAND   PTCLDY    12   2  64 S9        30.39F WCI   0
6HR MIN TEMP:  11; 6HR MAX TEMP:  20;

AURORA         CLOUDY    13   3  64 S6        30.39F WCI   4
HASTINGS       CLEAR     11   1  64 S7        30.37F WCI   0
6HR MIN TEMP:  11; 6HR MAX TEMP:  20;

HEBRON         PTCLDY    13   3  64 S7        30.44F WCI   2
HOLDREGE       CLEAR      8   1  74 SE8       30.31F WCI  -4
KEARNEY *      CLEAR     10   1  67 S14       30.34F WCI  -5
YORK           MOCLDY    10   3  72 S7        30.42F WCI   0
$$

NEZ011>018-030>034-042>045-280700-
NORTHEAST NEBRASKA

CITY           SKY/WX    TMP DP  RH WIND       PRES   REMARKS
NORFOLK        CLEAR      8   1  73 S10       30.41F WCI  -6
6HR MIN TEMP:   8; 6HR MAX TEMP:  19;

ALBION         PTCLDY     6  -2  68 SE3       30.38F
BLAIR          CLEAR     10   2  70 SE5       30.47F WCI   2
COLUMBUS *     CLEAR      7  -6  56 SE6       30.44F WCI  -3
FREMONT        CLEAR     12   2  63 SE7       30.48S WCI   2
TEKAMAH        CLEAR      7   1  76 S5        30.51F WCI  -2
6HR MIN TEMP:   7; 6HR MAX TEMP:  17;

WAYNE          CLEAR      6   1  80 S10       30.44F WCI  -8
$$

NEZ050>053-065>068-078-088>093-280700-
SOUTHEAST NEBRASKA

CITY           SKY/WX    TMP DP  RH WIND       PRES   REMARKS
LINCOLN        PTCLDY    10   0  63 S6        30.49S WCI   0
6HR MIN TEMP:   8; 6HR MAX TEMP:  19;

OMAHA EPPLEY   CLEAR      9   1  70 SE6       30.52F WCI  -1
6HR MIN TEMP:   9; 6HR MAX TEMP:  18;

BEATRICE       CLOUDY    14   4  64 S7        30.47F WCI   4
FALLS CITY     CLOUDY    11   1  64 SE3       30.53F
6HR MIN TEMP:   9; 6HR MAX TEMP:  17;

NEBRASKA CITY  CLEAR     10  -4  53 SE6       30.50F WCI   0
PLATTSMOUTH    CLEAR     10  -2  57 SE5       30.50S WCI   2
$$

NEZ044-045-051>053-067-280700-
OMAHA AREA

CITY           SKY/WX    TMP DP  RH WIND       PRES   REMARKS
OMAHA EPPLEY   CLEAR      9   1  70 SE6       30.52F WCI  -1
6HR MIN TEMP:   9; 6HR MAX TEMP:  18;

BLAIR          CLEAR     10   2  70 SE5       30.47F WCI   2
FREMONT        CLEAR     12   2  63 SE7       30.48S WCI   2
MILLARD        CLEAR     11   3  68 CALM      30.50F
OFFUTT AFB     CLEAR      8  -1  66 E5        30.50F WCI   0
PLATTSMOUTH    CLEAR     10  -2  57 SE5       30.50S WCI   2
WAHOO          FAIR       7  -2  67 S6        30.48S WCI  -4
$$


USA.gov is the U.S. government's official web portal to all federal, state and local government web resources and services.